[[{"header":{"parameterUnit":"m.s-1","parameterCategory":2,"la1":30.2991,"la2":30.254,"lo1":-89.0895,"lo2":-89.0444,"dy":0.0017,"dx":0.0017,"nx":28,"ny":28,"refTime":"2024-04-18T03:00:00:Z","depth":"0","parameterNumber":2,"parameterNumberName":"U-component_of_CURRENTS"},"data":[0,0,0,0,0,0,0,0,0,0,0,0,0,0,0,0,0,0,0,0,0,0,0,0,0,0,0,0,0,0,0,0,0,0,0,0,0,0,0,0,0,0,0,0,0,0,0,0,0,0,0,0,0,0,0,0,0,0,0.3729,0.3731,0,0.3875,0.3876,0.3877,0.3941,0.3941,0.3941,0.3941,0.3687,0.368,0.3674,0,0,0,0,0,0,0,0,0,0,0,0,0,0.3539,0.3542,0.3729,0.3731,0.3733,0.3874,0.3876,0.3878,0.3941,0.3941,0.3941,0.3941,0.3689,0.3681,0.3673,0,0,0,0,0,0,0,0,0,0,0,0,0,0.3644,0.3543,0.3729,0.3784,0.379,0.3874,0.3876,0.3878,0.3941,0.3941,0.3941,0.3941,0.3692,0.3682,0.3672,0.3608,0,0,0.3641,0.3636,0,0,0,0,0,0,0,0,0.3638,0.3651,0.3774,0.378,0.3788,0.3892,0.3717,0.3769,0.3941,0.3881,0.3941,0.3941,0.372,0.3708,0.3737,0.3596,0.3585,0.364,0.3634,0.3629,0.3626,0,0,0,0,0,0,0,0.3631,0.3645,0.3784,0.3776,0.3785,0.3813,0.3827,0.3728,0.3789,0.3886,0.3892,0.3912,0.3721,0.3747,0.373,0.3581,0.364,0.3631,0.3625,0.3621,0.3474,0.3477,0,0,0,0,0,0,0.3617,0.3638,0.3779,0.3789,0.3715,0.3816,0.3832,0.3856,0.3799,0.3794,0.3912,0.3915,0.3764,0.3742,0.3721,0.3696,0.3629,0.362,0.3614,0.3472,0.3475,0.3477,0,0,0,0,0,0,0.3613,0.3628,0.3774,0.3718,0.3739,0.3819,0.3846,0.3859,0.3887,0.3824,0.3811,0.3927,0.3763,0.3735,0.3695,0.3683,0.3615,0.3606,0.347,0.3473,0.3476,0.3607,0,0,0,0,0,0,0.3606,0.3626,0.3629,0.3718,0.3742,0.3814,0.3847,0.3862,0.3901,0.3906,0.383,0.3809,0.3761,0.3712,0.3685,0.3668,0.3598,0.3467,0.3471,0.3475,0.36,0.3614,0.3627,0,0,0,0,0,0.3599,0.3602,0.3628,0.3645,0.3747,0.3814,0.3828,0.3883,0.3901,0.3909,0.3909,0.3811,0.3718,0.3706,0.3674,0.3653,0.3465,0.347,0.3475,0.3594,0.3611,0.3626,0,0,0,0,0,0,0.3516,0.3612,0.3642,0.3673,0.3735,0.3825,0.3837,0.3881,0.3894,0.3888,0.3837,0.3816,0.3787,0.3706,0.3694,0.3632,0.3573,0.3572,0.3675,0.369,0.3703,0.3693,0.3589,0,0,0,0,0,0.3501,0.353,0.3624,0.3645,0.3674,0.3755,0.3787,0.383,0.3863,0.3872,0.3837,0.3799,0.3783,0.3729,0.3694,0.3627,0.3605,0.3598,0.3611,0.3623,0.3599,0.3648,0.3663,0.3494,0.3494,0.3494,0,0,0.3475,0.3531,0.3547,0.3629,0.368,0.3728,0.3773,0.3819,0.3857,0.3827,0.384,0.384,0.3788,0.3771,0.3741,0.369,0.3663,0.3629,0.364,0.3608,0.3654,0.3671,0.3686,0.3497,0.3497,0.3496,0,0,0.3445,0.3486,0.3507,0.356,0.3639,0.3694,0.3706,0.3794,0.3826,0.3851,0.3874,0.3889,0.3808,0.3816,0.3798,0.3847,0.3759,0.3813,0.3827,0.3877,0.3891,0.3903,0.3908,0.392,0.3788,0.3788,0.3788,0,0.3408,0.3458,0.3519,0.3559,0.3598,0.3678,0.3711,0.3761,0.3828,0.3845,0.3852,0.3872,0.3837,0.3849,0.39,0.387,0.3873,0.3771,0.3895,0.3906,0.3916,0.3919,0.3929,0.3795,0.3794,0.3794,0.3793,0,0.3415,0.345,0.3462,0.3543,0.3585,0.3624,0.3708,0.3742,0.3787,0.3841,0.3878,0.3902,0.3902,0.3914,0.3918,0.3967,0.3941,0.3937,0.3855,0.3942,0.3938,0.3947,0.3805,0.3802,0.38,0.3799,0,0,0.3344,0.3448,0.3451,0.3487,0.3581,0.3621,0.3668,0.3739,0.3771,0.3834,0.387,0.3925,0.3952,0.3939,0.3957,0.4002,0.411,0.3997,0.3997,0.4001,0.4196,0.4139,0.4142,0.4139,0.4141,0.4143,0.4169,0,0.3331,0.3399,0.3448,0.3498,0.3544,0.3611,0.365,0.3717,0.3771,0.382,0.3876,0.3918,0.3954,0.3972,0.4033,0.4092,0.4137,0.41,0.4108,0.4107,0.4047,0.4153,0.3914,0.3914,0.4177,0.4178,0.4179,0,0.3323,0.3376,0.3422,0.3498,0.3518,0.3548,0.3617,0.3664,0.3744,0.3785,0.3842,0.389,0.397,0.3999,0.4119,0.4096,0.4152,0.4198,0.42,0.4096,0.4067,0.3867,0.3919,0.3793,0.4192,0.4191,0.419,0,0.3268,0.335,0.3383,0.3415,0.351,0.3521,0.3568,0.3645,0.3677,0.3765,0.3794,0.3888,0.3934,0.4033,0.4138,0.4137,0.4264,0.4264,0.4257,0.4251,0.4017,0.3987,0.3937,0.4355,0.4355,0.4355,0.4355,0,0.3246,0.3263,0.336,0.3382,0.3404,0.3484,0.3504,0.3563,0.3633,0.3668,0.377,0.3816,0.3956,0.4042,0.4133,0.4216,0.4258,0.4267,0.4267,0.4057,0.4032,0.3884,0.3858,0.4356,0.4356,0.4355,0.4355,0,0.3168,0.3234,0.327,0.3359,0.3377,0.3392,0.3458,0.3478,0.3563,0.3608,0.3636,0.3771,0.3887,0.4004,0.4155,0.4192,0.4153,0.4304,0.4029,0.3997,0.3858,0.3849,0.3675,0.3583,0.4282,0.4281,0.428,0,0.3134,0.3151,0.323,0.3243,0.3271,0.331,0.3327,0.3422,0.3453,0.3581,0.3596,0.3724,0.381,0.3986,0.4058,0.4161,0.4091,0.4011,0.3978,0.3821,0.3812,0.3696,0.3623,0.3716,0.371,0.3706,0.3702,0,0.3061,0.3083,0.3119,0.316,0.3176,0.32,0.3247,0.3262,0.3372,0.3423,0.352,0.3602,0.3744,0.3747,0.3872,0.3917,0.3772,0.3925,0.383,0.3424,0.3221,0.3138,0.3712,0.3663,0.3667,0.367,0.3672,0.3673,0.2989,0.2994,0.3051,0.3068,0.3088,0.31,0.3088,0.3151,0.3191,0.325,0.3387,0.3439,0.3462,0.3599,0.3622,0.3454,0.354,0.3349,0.3368,0.3277,0.3126,0.3611,0.3534,0.3537,0.354,0.3542,0.3544,0,0.2918,0.294,0.2962,0.2984,0.2968,0.3013,0.303,0.3005,0.3016,0.3102,0.3169,0.3126,0.3087,0.31,0.2996,0.2904,0.278,0.2819,0.257,0.2548,0.3012,0.2926,0.263,0.263,0.263,0.263,0.263,0.263,0.2886,0.2888,0.2905,0.287,0.2871,0.2815,0.2805,0.2782,0.2813,0.2755,0.2711,0.2734,0.2727,0.2623,0.247,0.2423,0.2277,0.213,0.2233,0.2525,0.2574,0.262,0.2531,0.2157,0.2157,0.1578,0.1574,0.1571]},{"header":{"parameterUnit":"m.s-1","parameterCategory":2,"la1":30.2991,"la2":30.254,"lo1":-89.0895,"lo2":-89.0444,"dy":0.0017,"dx":0.0017,"nx":28,"ny":28,"refTime":"2024-04-18T03:00:00:Z","depth":"0","parameterNumber":3,"parameterNumberName":"V-component_of_CURRENTS"},"data":[0,0,0,0,0,0,0,0,0,0,0,0,0,0,0,0,0,0,0,0,0,0,0,0,0,0,0,0,0,0,0,0,0,0,0,0,0,0,0,0,0,0,0,0,0,0,0,0,0,0,0,0,0,0,0,0,0,0,-0.0278,-0.0278,0,-0.0241,-0.024,-0.024,-0.0216,-0.0216,-0.0216,-0.0216,-0.0268,-0.0269,-0.027,0,0,0,0,0,0,0,0,0,0,0,0,0,-0.0274,-0.0275,-0.0278,-0.0278,-0.0277,-0.0241,-0.024,-0.0239,-0.0216,-0.0216,-0.0216,-0.0216,-0.0268,-0.0269,-0.0271,0,0,0,0,0,0,0,0,0,0,0,0,0,-0.0258,-0.0275,-0.0278,-0.0263,-0.0262,-0.0241,-0.024,-0.0239,-0.0215,-0.0216,-0.0216,-0.0216,-0.0267,-0.0269,-0.0271,-0.0279,0,0,-0.0277,-0.0277,0,0,0,0,0,0,0,0,-0.0259,-0.0258,-0.0266,-0.0264,-0.0263,-0.0236,-0.0258,-0.0258,-0.0215,-0.023,-0.0216,-0.0216,-0.0267,-0.0269,-0.0256,-0.0281,-0.0284,-0.0277,-0.0278,-0.0279,-0.0279,0,0,0,0,0,0,0,-0.026,-0.0259,-0.026,-0.0265,-0.0264,-0.0241,-0.0239,-0.0257,-0.0247,-0.0229,-0.0228,-0.0228,-0.0267,-0.0254,-0.0258,-0.0284,-0.0277,-0.0278,-0.028,-0.028,-0.0309,-0.0308,0,0,0,0,0,0,-0.0273,-0.026,-0.0261,-0.0259,-0.0264,-0.0241,-0.0239,-0.0242,-0.0245,-0.0246,-0.0228,-0.0227,-0.0251,-0.0255,-0.026,-0.0244,-0.0279,-0.0281,-0.0282,-0.0309,-0.0309,-0.0308,0,0,0,0,0,0,-0.0273,-0.0274,-0.0263,-0.0261,-0.0258,-0.0242,-0.0245,-0.0241,-0.0228,-0.0244,-0.0246,-0.022,-0.0251,-0.0257,-0.0259,-0.0247,-0.0281,-0.0283,-0.031,-0.0309,-0.0308,-0.023,0,0,0,0,0,0,-0.0273,-0.0274,-0.0275,-0.0262,-0.0259,-0.025,-0.0245,-0.024,-0.023,-0.0228,-0.0238,-0.0243,-0.0252,-0.0255,-0.026,-0.025,-0.0285,-0.031,-0.0309,-0.0309,-0.0233,-0.0227,-0.0221,0,0,0,0,0,-0.0273,-0.027,-0.0275,-0.0275,-0.0263,-0.025,-0.0245,-0.0232,-0.0229,-0.0221,-0.0217,-0.0242,-0.0255,-0.0256,-0.0262,-0.0252,-0.031,-0.0309,-0.0309,-0.0236,-0.0228,-0.0221,0,0,0,0,0,0,-0.026,-0.0267,-0.0273,-0.027,-0.0264,-0.0247,-0.0237,-0.0232,-0.0219,-0.022,-0.0232,-0.0235,-0.0233,-0.0258,-0.0259,-0.026,-0.029,-0.029,-0.0232,-0.0226,-0.022,-0.021,-0.0286,0,0,0,0,0,-0.0263,-0.0265,-0.0267,-0.0262,-0.0263,-0.0252,-0.0244,-0.0237,-0.0229,-0.0222,-0.0228,-0.0236,-0.0235,-0.0241,-0.025,-0.0252,-0.0255,-0.0253,-0.0247,-0.0242,-0.0239,-0.0207,-0.0197,-0.0305,-0.0305,-0.0305,0,0,-0.0256,-0.026,-0.026,-0.0261,-0.0255,-0.0242,-0.0246,-0.0236,-0.0217,-0.0234,-0.0212,-0.0218,-0.0231,-0.022,-0.0224,-0.0239,-0.0215,-0.0241,-0.0236,-0.0236,-0.0205,-0.0194,-0.0184,-0.0305,-0.0305,-0.0305,0,0,-0.0236,-0.025,-0.0243,-0.0241,-0.0239,-0.0233,-0.0233,-0.0221,-0.021,-0.0197,-0.0195,-0.0185,-0.0201,-0.0188,-0.0188,-0.0161,-0.0184,-0.0179,-0.014,-0.0108,-0.0099,-0.009,-0.0084,-0.0075,-0.0177,-0.0176,-0.0176,0,-0.0225,-0.0219,-0.0236,-0.0227,-0.0216,-0.023,-0.0209,-0.0202,-0.0188,-0.0169,-0.0188,-0.0163,-0.0179,-0.014,-0.013,-0.0146,-0.0141,-0.016,-0.0098,-0.0089,-0.0082,-0.0078,-0.0069,-0.0172,-0.0173,-0.0173,-0.0174,0,-0.0201,-0.0193,-0.0188,-0.0183,-0.0176,-0.0162,-0.0162,-0.0148,-0.0146,-0.0131,-0.0101,-0.0106,-0.0087,-0.0094,-0.0106,-0.0059,-0.0078,-0.0089,-0.0108,-0.0066,-0.0065,-0.0058,-0.0167,-0.0168,-0.0169,-0.017,0,0,-0.0171,-0.0171,-0.0165,-0.0151,-0.015,-0.0136,-0.0114,-0.0084,-0.0049,-0.0053,0.0001,-0.0001,-0.0001,-0.0002,-0.0011,0.0008,0.0059,-0.0019,-0.0019,-0.0001,0.0116,0.01,0.0106,0.0067,0.0069,0.007,0.0095,0,-0.0139,-0.0112,-0.0118,-0.0078,-0.0062,-0.0065,-0.0034,-0.0013,0.0001,0.0043,0.0043,0.0078,0.0033,0.0051,0.0065,0.0064,0.0082,0.0052,0.006,0.006,0.0052,0.0116,0.0137,0.0161,0.0102,0.0103,0.0104,0,-0.0104,-0.009,-0.0049,-0.0017,-0.0008,0.0013,0.0066,0.0092,0.0133,0.0147,0.0174,0.0171,0.02,0.0155,0.0175,0.0159,0.0143,0.0132,0.0133,0.0096,0.0059,0.0107,0.0176,0.0077,0.0115,0.0114,0.0113,0,-0.0062,-0.0034,0.0003,0.0012,0.0041,0.0069,0.0089,0.013,0.0174,0.0219,0.0259,0.0274,0.0301,0.0284,0.0246,0.0221,0.0266,0.0229,0.0198,0.0195,0.0202,0.0197,0.0188,0.0253,0.0253,0.0253,0.0253,0,-0.0018,0.0015,0.0025,0.0048,0.0108,0.0109,0.0183,0.0206,0.026,0.034,0.0319,0.0388,0.0338,0.0351,0.0295,0.0275,0.0306,0.022,0.0214,0.0227,0.0224,0.0127,0.0052,0.0254,0.0254,0.0254,0.0253,0,0.0032,0.0035,0.0082,0.0114,0.013,0.0174,0.0238,0.0295,0.033,0.0435,0.0458,0.0492,0.0516,0.0453,0.0437,0.0353,0.0272,0.0305,0.0307,0.0301,0.0156,0.0085,0.0068,0.002,0.0272,0.0272,0.0272,0,0.0064,0.0089,0.0134,0.0169,0.0188,0.0246,0.0299,0.0335,0.0406,0.0517,0.0585,0.0627,0.0696,0.0638,0.052,0.0428,0.0312,0.0337,0.0289,0.0168,0.0084,0.0041,-0.0001,0.0324,0.0325,0.0325,0.0325,0,0.0126,0.0137,0.0171,0.0242,0.0296,0.0367,0.0442,0.0511,0.0587,0.0693,0.0845,0.0906,0.0846,0.0786,0.0611,0.0519,0.0262,0.0339,0.0235,0.0145,0.0081,0.0026,0.0261,0.0328,0.0328,0.0328,0.0328,0.0327,0.0174,0.0209,0.0252,0.0327,0.0394,0.0501,0.0588,0.0692,0.0845,0.1047,0.1071,0.1234,0.1035,0.0828,0.0648,0.0321,0.0312,0.0217,0.0146,0.0119,0.0058,0.0282,0.0326,0.0326,0.0325,0.0325,0.0325,0,0.0233,0.0271,0.0339,0.0435,0.0536,0.0553,0.0701,0.0816,0.1034,0.1243,0.1411,0.146,0.1199,0.088,0.0417,0.0174,0.0084,0.0033,-0.002,-0.0052,0.0179,0.0165,0.0152,0.0152,0.0153,0.0153,0.0153,0.0153,0.0267,0.0337,0.0375,0.0551,0.0629,0.0779,0.0879,0.1062,0.1242,0.1543,0.1707,0.1787,0.1533,0.069,0.0105,-0.0048,-0.0212,-0.0229,-0.0328,-0.0183,-0.0172,-0.0161,-0.019,-0.0277,-0.0278,-0.051,-0.0513,-0.0515]}],[{"header":{"parameterUnit":"m.s-1","parameterCategory":2,"la1":30.2991,"la2":30.254,"lo1":-89.0895,"lo2":-89.0444,"dy":0.0017,"dx":0.0017,"nx":28,"ny":28,"refTime":"2024-04-18T03:00:00:Z","depth":"2","parameterNumber":2,"parameterNumberName":"U-component_of_CURRENTS"},"data":[0,0,0,0,0,0,0,0,0,0,0,0,0,0,0,0,0,0,0,0,0,0,0,0,0,0,0,0,0,0,0,0,0,0,0,0,0,0,0,0,0,0,0,0,0,0,0,0,0,0,0,0,0,0,0,0,0,0,0.2312,0.2313,0,0.2371,0.2372,0.2373,0.2432,0.2433,0.2434,0.2434,0.2362,0.236,0.2357,0,0,0,0,0,0,0,0,0,0,0,0,0,0.235,0.2348,0.2312,0.2313,0.2313,0.2371,0.2372,0.2373,0.2432,0.2433,0.2434,0.2435,0.2363,0.236,0.2357,0,0,0,0,0,0,0,0,0,0,0,0,0,0.2364,0.2347,0.2312,0.2349,0.2353,0.2371,0.2372,0.2373,0.2432,0.2433,0.2434,0.2435,0.2364,0.236,0.2356,0.231,0,0,0.2344,0.2343,0,0,0,0,0,0,0,0,0.2363,0.2362,0.2343,0.2347,0.2351,0.2395,0.2359,0.2345,0.2432,0.2403,0.2434,0.2436,0.236,0.2356,0.2368,0.2306,0.2303,0.2344,0.2342,0.234,0.2339,0,0,0,0,0,0,0,0.2361,0.2361,0.2336,0.2344,0.2349,0.2397,0.24,0.2358,0.2372,0.2405,0.241,0.2415,0.2361,0.2371,0.2366,0.2302,0.2344,0.2341,0.2338,0.2337,0.2338,0.2341,0,0,0,0,0,0,0.2346,0.2359,0.2334,0.2338,0.2359,0.2395,0.2398,0.238,0.2376,0.2377,0.2414,0.2417,0.2378,0.237,0.2363,0.2384,0.234,0.2336,0.2334,0.2336,0.2339,0.2341,0,0,0,0,0,0,0.2346,0.2342,0.2332,0.2351,0.2353,0.2393,0.2373,0.2381,0.2409,0.2384,0.2383,0.2436,0.2378,0.2369,0.2357,0.2378,0.2334,0.2331,0.2333,0.2337,0.234,0.2375,0,0,0,0,0,0,0.2347,0.2341,0.2337,0.2349,0.2351,0.2352,0.2372,0.2381,0.2409,0.2415,0.2401,0.2395,0.2378,0.2364,0.2354,0.2372,0.2328,0.233,0.2335,0.2339,0.2371,0.2379,0.2387,0,0,0,0,0,0.2347,0.2329,0.2335,0.2334,0.2338,0.2352,0.2359,0.2392,0.2409,0.2422,0.2425,0.2397,0.2387,0.2361,0.2349,0.2367,0.2328,0.2333,0.2339,0.2367,0.2378,0.2386,0,0,0,0,0,0,0.2357,0.2334,0.2341,0.2321,0.2342,0.2363,0.2382,0.2397,0.2413,0.2423,0.2401,0.2395,0.2411,0.2383,0.2356,0.2391,0.2362,0.2365,0.2388,0.2398,0.2405,0.2443,0.2325,0,0,0,0,0,0.2351,0.2331,0.233,0.2327,0.2332,0.2359,0.2374,0.2395,0.2405,0.2416,0.2409,0.2412,0.2421,0.2403,0.241,0.2389,0.2412,0.2407,0.2414,0.2421,0.2449,0.2502,0.2517,0.2359,0.2359,0.2359,0,0,0.2363,0.2345,0.2341,0.2328,0.235,0.2364,0.2372,0.2398,0.2425,0.2398,0.2432,0.2438,0.243,0.2443,0.2446,0.2415,0.2481,0.2428,0.2432,0.2458,0.2509,0.2524,0.2538,0.2363,0.2362,0.2362,0,0,0.2376,0.2354,0.2347,0.2351,0.2369,0.2383,0.239,0.2415,0.2443,0.2464,0.2476,0.2489,0.2484,0.2488,0.2487,0.2534,0.2537,0.2547,0.2585,0.2635,0.2648,0.2659,0.2712,0.2728,0.2529,0.2529,0.2529,0,0.2403,0.2376,0.2357,0.2355,0.2372,0.2391,0.241,0.2433,0.2459,0.2482,0.2486,0.2539,0.2512,0.2541,0.2573,0.2548,0.2593,0.2537,0.2643,0.2655,0.2667,0.2718,0.2735,0.2531,0.2531,0.2531,0.253,0,0.2402,0.2397,0.2398,0.2395,0.2409,0.243,0.2449,0.2477,0.2512,0.2539,0.2599,0.2593,0.2624,0.2621,0.2607,0.2678,0.269,0.266,0.2612,0.2685,0.2734,0.2751,0.2534,0.2534,0.2533,0.2532,0,0,0.2432,0.2405,0.241,0.2419,0.2433,0.2445,0.2486,0.253,0.2572,0.2611,0.2674,0.2697,0.2716,0.2721,0.2709,0.2744,0.2843,0.2745,0.2746,0.2786,0.2984,0.2835,0.2839,0.2841,0.2844,0.2847,0.2985,0,0.2457,0.245,0.2437,0.247,0.2475,0.2496,0.2537,0.2577,0.2621,0.268,0.2707,0.2767,0.2746,0.2774,0.2809,0.2845,0.2893,0.281,0.2919,0.2923,0.2771,0.2855,0.2607,0.2696,0.3002,0.3005,0.3007,0,0.246,0.2455,0.2476,0.2501,0.2511,0.2545,0.2612,0.2649,0.272,0.2759,0.2819,0.2851,0.2918,0.2891,0.3003,0.2963,0.2995,0.3016,0.302,0.2886,0.2806,0.2675,0.2716,0.3036,0.3034,0.3031,0.303,0,0.2468,0.2485,0.2505,0.2509,0.254,0.2581,0.2623,0.2686,0.2727,0.2825,0.288,0.2954,0.3016,0.3077,0.3102,0.3085,0.3223,0.3184,0.3087,0.3078,0.2888,0.2854,0.3286,0.3285,0.3285,0.3285,0.3284,0,0.247,0.249,0.2518,0.2521,0.2577,0.2606,0.268,0.2725,0.2806,0.2856,0.2934,0.2979,0.3078,0.3143,0.316,0.3171,0.3267,0.313,0.311,0.2892,0.2858,0.3164,0.3148,0.329,0.3289,0.3288,0.3287,0,0.2435,0.2472,0.2477,0.2527,0.2571,0.2599,0.2699,0.2739,0.2839,0.2912,0.2955,0.3049,0.3124,0.3188,0.328,0.3232,0.3253,0.323,0.2964,0.2909,0.3073,0.3058,0.3168,0.3164,0.3161,0.3158,0.3156,0,0.2413,0.2401,0.2447,0.2494,0.2525,0.2597,0.2654,0.2745,0.2779,0.2917,0.2938,0.3059,0.3049,0.3125,0.3093,0.3107,0.3197,0.2886,0.278,0.3095,0.3065,0.3055,0.3045,0.2565,0.2558,0.2552,0.2547,0,0.2322,0.2328,0.2327,0.2431,0.2507,0.2542,0.263,0.264,0.274,0.2777,0.2816,0.2826,0.2916,0.2774,0.2794,0.2764,0.2856,0.2765,0.3194,0.2601,0.2527,0.2497,0.2507,0.2496,0.2501,0.2505,0.2508,0.251,0.2268,0.2233,0.227,0.2336,0.2435,0.2459,0.243,0.2484,0.2468,0.2459,0.2571,0.2505,0.2562,0.2417,0.2355,0.2351,0.2549,0.2452,0.247,0.2494,0.2368,0.2288,0.2192,0.2195,0.2198,0.22,0.2202,0,0.2206,0.2179,0.2203,0.2286,0.232,0.2414,0.2395,0.2292,0.2184,0.2209,0.2184,0.1974,0.1864,0.1961,0.1859,0.1859,0.1854,0.1801,0.1781,0.1833,0.1879,0.1721,0.1374,0.1371,0.1369,0.1366,0,0,0.2197,0.2153,0.2105,0.2122,0.2214,0.2165,0.2092,0.1943,0.1872,0.1692,0.164,0.1734,0.1848,0.1559,0.1542,0.1439,0.1619,0.1381,0.2046,0.2071,0.2113,0.2256,0.207,0,0,0,0,0]},{"header":{"parameterUnit":"m.s-1","parameterCategory":2,"la1":30.2991,"la2":30.254,"lo1":-89.0895,"lo2":-89.0444,"dy":0.0017,"dx":0.0017,"nx":28,"ny":28,"refTime":"2024-04-18T03:00:00:Z","depth":"2","parameterNumber":3,"parameterNumberName":"V-component_of_CURRENTS"},"data":[0,0,0,0,0,0,0,0,0,0,0,0,0,0,0,0,0,0,0,0,0,0,0,0,0,0,0,0,0,0,0,0,0,0,0,0,0,0,0,0,0,0,0,0,0,0,0,0,0,0,0,0,0,0,0,0,0,0,-0.0096,-0.0098,0,-0.025,-0.0252,-0.0254,-0.0365,-0.0366,-0.0367,-0.0368,-0.0295,-0.0292,-0.0289,0,0,0,0,0,0,0,0,0,0,0,0,0,0.0026,0.0025,-0.0096,-0.0098,-0.01,-0.025,-0.0252,-0.0254,-0.0365,-0.0366,-0.0367,-0.0369,-0.0296,-0.0293,-0.0289,0,0,0,0,0,0,0,0,0,0,0,0,0,-0.0067,0.0025,-0.0096,-0.0174,-0.0182,-0.0249,-0.0252,-0.0255,-0.0365,-0.0366,-0.0368,-0.0369,-0.0297,-0.0293,-0.0289,-0.0233,0,0,-0.0276,-0.0274,0,0,0,0,0,0,0,0,-0.0061,-0.0071,-0.016,-0.0168,-0.0178,-0.029,-0.0183,-0.0236,-0.0364,-0.0295,-0.0368,-0.037,-0.0271,-0.0269,-0.0298,-0.023,-0.0227,-0.0275,-0.0273,-0.0271,-0.027,0,0,0,0,0,0,0,-0.0054,-0.0065,-0.0157,-0.0162,-0.0173,-0.0227,-0.0241,-0.0194,-0.0269,-0.0301,-0.031,-0.0327,-0.0275,-0.0302,-0.0296,-0.0226,-0.0275,-0.0272,-0.0269,-0.0267,-0.0208,-0.0209,0,0,0,0,0,0,-0.0031,-0.0059,-0.0152,-0.0161,-0.0122,-0.0228,-0.0243,-0.0252,-0.0275,-0.0281,-0.0326,-0.0332,-0.0309,-0.0301,-0.0294,-0.029,-0.0271,-0.0267,-0.0264,-0.0207,-0.0208,-0.0209,0,0,0,0,0,0,-0.0027,-0.0037,-0.0146,-0.0115,-0.0132,-0.0228,-0.0237,-0.0255,-0.0298,-0.0296,-0.0298,-0.0352,-0.031,-0.03,-0.0272,-0.0285,-0.0265,-0.0261,-0.0206,-0.0207,-0.0209,-0.0242,0,0,0,0,0,0,-0.0023,-0.0034,-0.0039,-0.0112,-0.0133,-0.018,-0.0237,-0.0257,-0.0305,-0.0315,-0.0318,-0.0313,-0.031,-0.0278,-0.0267,-0.0279,-0.0258,-0.0204,-0.0206,-0.0208,-0.024,-0.0244,-0.0248,0,0,0,0,0,-0.0018,-0.001,-0.0038,-0.005,-0.0133,-0.0179,-0.0195,-0.0268,-0.0305,-0.0314,-0.0329,-0.0314,-0.0284,-0.0274,-0.0262,-0.0273,-0.0204,-0.0206,-0.0208,-0.0238,-0.0243,-0.0248,0,0,0,0,0,0,0.003,-0.0023,-0.0055,-0.0068,-0.0119,-0.0198,-0.0219,-0.0266,-0.0292,-0.0297,-0.0304,-0.0298,-0.0287,-0.0269,-0.0259,-0.0266,-0.0249,-0.0248,-0.0276,-0.0281,-0.0285,-0.0279,-0.0254,0,0,0,0,0,0.0043,0.0035,-0.0027,-0.0043,-0.0061,-0.014,-0.0172,-0.0216,-0.025,-0.0268,-0.0283,-0.0288,-0.0284,-0.0273,-0.0263,-0.0239,-0.0222,-0.0247,-0.0252,-0.0256,-0.0245,-0.0256,-0.026,-0.0216,-0.0216,-0.0216,0,0,0.0048,0.0022,0.001,-0.0034,-0.0082,-0.01,-0.0163,-0.0201,-0.0227,-0.0243,-0.0276,-0.029,-0.0282,-0.0283,-0.0277,-0.0268,-0.0257,-0.0258,-0.0261,-0.0248,-0.0259,-0.0263,-0.0267,-0.0218,-0.0218,-0.0217,0,0,0.0068,0.0041,0.0043,0.0019,-0.0032,-0.0075,-0.0082,-0.0158,-0.0203,-0.0224,-0.0259,-0.0282,-0.0274,-0.0291,-0.0291,-0.0301,-0.028,-0.031,-0.032,-0.0332,-0.0335,-0.0338,-0.0307,-0.0307,-0.0312,-0.0312,-0.0313,0,0.007,0.0072,0.0034,0.0038,0.0019,-0.0057,-0.0058,-0.0107,-0.0173,-0.0193,-0.023,-0.0278,-0.0279,-0.0285,-0.032,-0.0309,-0.0303,-0.0299,-0.0337,-0.0339,-0.0341,-0.031,-0.0309,-0.0314,-0.0314,-0.0314,-0.0314,0,0.0101,0.0097,0.0099,0.008,0.0061,0.0048,-0.0009,-0.0045,-0.011,-0.0162,-0.0206,-0.0248,-0.027,-0.0302,-0.0316,-0.0343,-0.0327,-0.034,-0.032,-0.0347,-0.0312,-0.0311,-0.0317,-0.0316,-0.0316,-0.0315,0,0,0.0101,0.0117,0.0114,0.012,0.0087,0.0074,0.0048,0.0002,-0.0012,-0.0109,-0.0131,-0.0206,-0.0252,-0.0256,-0.0297,-0.0339,-0.0364,-0.0359,-0.0359,-0.0322,-0.0366,-0.0329,-0.0323,-0.0395,-0.0396,-0.0396,-0.0329,0,0.0122,0.0163,0.0156,0.0167,0.0178,0.013,0.0116,0.0073,0.0017,-0.0019,-0.0104,-0.0137,-0.0225,-0.0246,-0.0304,-0.0333,-0.0365,-0.0379,-0.035,-0.0347,-0.0307,-0.0323,-0.0314,-0.0253,-0.0327,-0.0327,-0.0327,0,0.0147,0.0174,0.0211,0.0225,0.0224,0.0214,0.0193,0.0173,0.0119,0.0081,0.0018,-0.004,-0.0105,-0.0187,-0.0262,-0.027,-0.0322,-0.0367,-0.0365,-0.0316,-0.0309,-0.0242,-0.0247,-0.0324,-0.0325,-0.0325,-0.0325,0,0.0183,0.0204,0.0241,0.0246,0.0253,0.0245,0.0229,0.0192,0.0194,0.0143,0.0153,0.0055,0.0033,-0.0072,-0.0164,-0.0219,-0.0227,-0.0296,-0.0309,-0.0304,-0.028,-0.0273,-0.0356,-0.0357,-0.0357,-0.0357,-0.0357,0,0.0217,0.0236,0.0254,0.0279,0.0299,0.0286,0.0301,0.0273,0.027,0.0318,0.0206,0.0239,0.0049,0.002,-0.0098,-0.0162,-0.016,-0.0298,-0.0291,-0.0289,-0.0285,-0.0338,-0.0337,-0.0354,-0.0355,-0.0355,-0.0356,0,0.0264,0.0264,0.0316,0.0335,0.032,0.0341,0.0346,0.0374,0.0363,0.0432,0.0426,0.0381,0.0348,0.0203,0.0081,-0.0041,-0.0126,-0.0151,-0.0113,-0.0105,-0.0218,-0.0219,-0.0181,-0.0179,-0.0178,-0.0177,-0.0176,0,0.0291,0.0332,0.0378,0.0378,0.0376,0.0391,0.0405,0.0404,0.0466,0.0549,0.0612,0.0586,0.0608,0.0465,0.0238,0.0073,-0.0003,-0.0042,-0.0175,-0.0206,-0.0203,-0.0207,-0.021,-0.0145,-0.0144,-0.0143,-0.0142,0,0.0358,0.0386,0.0431,0.0457,0.0459,0.0514,0.0548,0.0636,0.0696,0.0779,0.0927,0.0948,0.0787,0.0611,0.0354,0.0217,-0.0027,-0.0029,-0.0053,-0.0194,-0.0168,-0.0167,-0.0172,-0.0134,-0.0135,-0.0135,-0.0136,-0.0136,0.0383,0.0444,0.0495,0.0544,0.0546,0.0658,0.0752,0.0845,0.0998,0.114,0.1156,0.1162,0.0917,0.0572,0.037,0.01,0.007,-0.007,-0.0075,-0.0081,-0.0092,-0.0066,-0.0011,-0.0011,-0.0012,-0.0012,-0.0012,0,0.0406,0.0486,0.0557,0.0613,0.0689,0.0679,0.0856,0.0971,0.1201,0.126,0.134,0.1128,0.0926,0.0646,0.0259,0.004,-0.0025,-0.0038,-0.0085,-0.0091,-0.0097,-0.0113,-0.0035,-0.0036,-0.0037,-0.0037,0,0,0.0398,0.0499,0.0609,0.0754,0.0789,0.0911,0.1058,0.1208,0.1287,0.138,0.134,0.1255,0.0958,0.0676,0.0389,0.0177,0.0083,0.0126,0.0166,0.0139,0.0136,-0.0093,-0.012,0,0,0,0,0]}],[{"header":{"parameterUnit":"m.s-1","parameterCategory":2,"la1":30.2991,"la2":30.254,"lo1":-89.0895,"lo2":-89.0444,"dy":0.0017,"dx":0.0017,"nx":28,"ny":28,"refTime":"2024-04-18T03:00:00:Z","depth":"4","parameterNumber":2,"parameterNumberName":"U-component_of_CURRENTS"},"data":[0,0,0,0,0,0,0,0,0,0,0,0,0,0,0,0,0,0,0,0,0,0,0,0,0,0,0,0,0,0,0,0,0,0,0,0,0,0,0,0,0,0,0,0,0,0,0,0,0,0,0,0,0,0,0,0,0,0,0.0647,0.0648,0,0.0684,0.0684,0.0683,0.0708,0.0709,0.0709,0.071,0.0946,0.0951,0.0957,0,0,0,0,0,0,0,0,0,0,0,0,0,0.0564,0.0565,0.0647,0.0648,0.0649,0.0684,0.0684,0.0683,0.0708,0.0709,0.0709,0.071,0.0944,0.095,0.0957,0,0,0,0,0,0,0,0,0,0,0,0,0,0.0594,0.0565,0.0647,0.067,0.0673,0.0684,0.0684,0.0683,0.0708,0.0709,0.071,0.0711,0.0942,0.095,0.0958,0.0988,0,0,0.0984,0.0987,0,0,0,0,0,0,0,0,0.0592,0.0596,0.0665,0.0668,0.0672,0.0698,0.0741,0.0797,0.0707,0.0688,0.071,0.0711,0.0885,0.0898,0.089,0.0999,0.1009,0.0984,0.0989,0.0993,0.0995,0,0,0,0,0,0,0,0.059,0.0595,0.0655,0.0666,0.067,0.0667,0.0672,0.075,0.0778,0.0689,0.0693,0.0707,0.0887,0.0882,0.0897,0.1012,0.0984,0.0992,0.0997,0.1,0.1221,0.1222,0,0,0,0,0,0,0.0599,0.0593,0.0654,0.0657,0.0641,0.0668,0.0674,0.0683,0.0773,0.0788,0.0706,0.0708,0.0867,0.0887,0.0906,0.1015,0.0993,0.1001,0.1006,0.1221,0.1222,0.1223,0,0,0,0,0,0,0.0597,0.0604,0.0653,0.0631,0.0638,0.067,0.0679,0.0683,0.0709,0.0784,0.0802,0.0732,0.0869,0.0894,0.0975,0.1022,0.1005,0.1012,0.122,0.1221,0.1222,0.1191,0,0,0,0,0,0,0.0594,0.0603,0.0621,0.0631,0.064,0.0672,0.0679,0.0684,0.0717,0.0721,0.0813,0.0833,0.0871,0.0962,0.0983,0.1033,0.1019,0.1219,0.122,0.1222,0.1191,0.1191,0.1191,0,0,0,0,0,0.0591,0.0609,0.0621,0.0629,0.066,0.0673,0.0676,0.0698,0.0718,0.0726,0.0777,0.0832,0.0988,0.0968,0.0994,0.1048,0.1218,0.122,0.1222,0.1191,0.1191,0.1191,0,0,0,0,0,0,0.0587,0.0614,0.0627,0.0655,0.0671,0.068,0.0692,0.0714,0.0755,0.0772,0.0838,0.0861,0.0958,0.0999,0.0976,0.1114,0.1116,0.1123,0.1084,0.1085,0.1085,0.1069,0.1026,0,0,0,0,0,0.0594,0.0613,0.0635,0.0659,0.0663,0.0683,0.0697,0.0716,0.0751,0.0769,0.0829,0.0902,0.0979,0.1026,0.1095,0.1167,0.1195,0.1219,0.1219,0.1219,0.1222,0.1261,0.1264,0.1229,0.1229,0.1229,0,0,0.0597,0.062,0.0629,0.066,0.0667,0.0682,0.0692,0.0718,0.0734,0.0795,0.0842,0.0915,0.0999,0.1072,0.1121,0.1117,0.1247,0.1221,0.122,0.1224,0.1263,0.1267,0.127,0.123,0.123,0.123,0,0,0.0604,0.0629,0.0641,0.0657,0.0688,0.0697,0.0714,0.0737,0.0746,0.0797,0.0854,0.0933,0.1041,0.1094,0.1141,0.1185,0.125,0.1235,0.1224,0.1261,0.1264,0.1267,0.1314,0.1322,0.1228,0.1228,0.1228,0,0.0608,0.0633,0.0647,0.0665,0.0683,0.0709,0.0724,0.0732,0.0783,0.081,0.0814,0.0978,0.1043,0.1147,0.1154,0.1188,0.1225,0.1215,0.126,0.1263,0.1266,0.1314,0.1323,0.1227,0.1227,0.1227,0.1227,0,0.0613,0.0646,0.0652,0.0682,0.07,0.0719,0.0735,0.0765,0.0792,0.0818,0.0915,0.0976,0.1083,0.1116,0.115,0.1232,0.1257,0.1257,0.1253,0.1268,0.1318,0.1327,0.1225,0.1226,0.1226,0.1226,0,0,0.059,0.0643,0.0651,0.0676,0.0715,0.073,0.0757,0.0796,0.0841,0.0878,0.0938,0.1035,0.1089,0.1144,0.1207,0.1226,0.1277,0.1252,0.1255,0.1289,0.138,0.1294,0.1297,0.129,0.1291,0.1292,0.1408,0,0.0591,0.0627,0.0657,0.07,0.0715,0.0757,0.0784,0.0832,0.087,0.0933,0.0989,0.1079,0.1093,0.1165,0.1187,0.1273,0.13,0.1247,0.1371,0.1374,0.1287,0.1303,0.1296,0.1415,0.1417,0.1418,0.1419,0,0.059,0.0616,0.0649,0.0721,0.0731,0.0767,0.084,0.0875,0.0959,0.0996,0.1081,0.1134,0.1218,0.1201,0.1317,0.1291,0.1337,0.1366,0.1371,0.1307,0.1305,0.1398,0.1437,0.1435,0.1434,0.1433,0.1432,0,0.0561,0.0622,0.0651,0.067,0.0742,0.0779,0.0829,0.0909,0.0955,0.1056,0.1117,0.1203,0.1286,0.1323,0.1386,0.1371,0.1484,0.1472,0.1436,0.1432,0.1488,0.1484,0.1532,0.1532,0.1532,0.1531,0.1531,0,0.055,0.0581,0.0648,0.0665,0.0715,0.078,0.0851,0.0917,0.1025,0.1095,0.1168,0.123,0.132,0.1389,0.1412,0.1453,0.1514,0.1439,0.145,0.1475,0.1468,0.1496,0.149,0.1536,0.1535,0.1534,0.1533,0,0.0515,0.0557,0.0602,0.0679,0.0703,0.075,0.0859,0.0909,0.1033,0.113,0.117,0.1296,0.1387,0.1452,0.1541,0.1508,0.1533,0.1533,0.1572,0.1583,0.1454,0.1446,0.1507,0.1504,0.1502,0.1501,0.15,0,0.0499,0.0516,0.0594,0.0612,0.065,0.0721,0.0759,0.0892,0.0948,0.1143,0.1177,0.1328,0.139,0.1457,0.1515,0.1563,0.1545,0.1549,0.1472,0.1444,0.145,0.1445,0.1439,0.1497,0.1496,0.1496,0.1495,0,0.0463,0.05,0.0527,0.0557,0.0598,0.0646,0.0722,0.0772,0.0931,0.1049,0.1167,0.1239,0.1356,0.1415,0.1479,0.1491,0.1528,0.153,0.1533,0.1461,0.1433,0.144,0.1436,0.1489,0.149,0.149,0.1491,0,0.0438,0.0438,0.0471,0.05,0.0533,0.0564,0.0622,0.0703,0.0797,0.1024,0.1049,0.121,0.1337,0.138,0.1412,0.1443,0.1426,0.1365,0.1376,0.1384,0.1287,0.1231,0.1237,0,0,0,0,0,0.0405,0.0391,0.0404,0.0428,0.0457,0.0492,0.0583,0.0651,0.0808,0.0866,0.0974,0.1068,0.1182,0.1247,0.126,0.1353,0.1415,0.1358,0.1345,0.1453,0.1461,0.1355,0,0,0,0,0,0,0.0376,0.0378,0.038,0.0362,0.037,0.0404,0.0472,0.0583,0.0626,0.0794,0.0858,0.0987,0.1101,0.117,0.1235,0.1258,0.1225,0.1456,0.1453,0.1449,0.1456,0.1462,0.1356,0,0,0,0,0]},{"header":{"parameterUnit":"m.s-1","parameterCategory":2,"la1":30.2991,"la2":30.254,"lo1":-89.0895,"lo2":-89.0444,"dy":0.0017,"dx":0.0017,"nx":28,"ny":28,"refTime":"2024-04-18T03:00:00:Z","depth":"4","parameterNumber":3,"parameterNumberName":"V-component_of_CURRENTS"},"data":[0,0,0,0,0,0,0,0,0,0,0,0,0,0,0,0,0,0,0,0,0,0,0,0,0,0,0,0,0,0,0,0,0,0,0,0,0,0,0,0,0,0,0,0,0,0,0,0,0,0,0,0,0,0,0,0,0,0,0.0475,0.0475,0,0.0424,0.0423,0.0421,0.0366,0.0366,0.0366,0.0366,0.0255,0.0252,0.0249,0,0,0,0,0,0,0,0,0,0,0,0,0,0.0477,0.0477,0.0475,0.0475,0.0475,0.0424,0.0422,0.0421,0.0366,0.0366,0.0366,0.0366,0.0256,0.0252,0.0249,0,0,0,0,0,0,0,0,0,0,0,0,0,0.0449,0.0477,0.0475,0.0447,0.0444,0.0424,0.0422,0.0421,0.0366,0.0366,0.0366,0.0366,0.0257,0.0253,0.0248,0.0227,0,0,0.0235,0.0234,0,0,0,0,0,0,0,0,0.0451,0.0448,0.0451,0.0449,0.0446,0.0407,0.0383,0.0355,0.0366,0.0388,0.0366,0.0366,0.0305,0.0297,0.0278,0.0222,0.0217,0.0235,0.0233,0.0231,0.0229,0,0,0,0,0,0,0,0.0453,0.045,0.0448,0.0451,0.0448,0.042,0.0416,0.0377,0.0342,0.0387,0.0384,0.039,0.0302,0.0283,0.0275,0.0215,0.0235,0.0231,0.0229,0.0227,0.0095,0.0094,0,0,0,0,0,0,0.0476,0.0452,0.0449,0.0447,0.0456,0.0421,0.0416,0.0414,0.0344,0.0335,0.039,0.0387,0.029,0.028,0.0271,0.0256,0.0231,0.0227,0.0224,0.0096,0.0095,0.0094,0,0,0,0,0,0,0.0476,0.0476,0.0452,0.0454,0.045,0.0422,0.042,0.0413,0.041,0.0348,0.0337,0.0396,0.0289,0.0277,0.0225,0.0251,0.0225,0.0221,0.0097,0.0096,0.0094,0.0216,0,0,0,0,0,0,0.0476,0.0476,0.0484,0.0456,0.0451,0.0451,0.0421,0.0413,0.0416,0.0412,0.035,0.0338,0.0288,0.0231,0.022,0.0244,0.0218,0.0098,0.0096,0.0095,0.0213,0.0219,0.0224,0,0,0,0,0,0.0476,0.0485,0.0484,0.0485,0.0462,0.0452,0.0446,0.0421,0.0417,0.0416,0.0358,0.0341,0.0212,0.0227,0.0214,0.0238,0.0099,0.0097,0.0095,0.0211,0.0218,0.0224,0,0,0,0,0,0,0.0483,0.0481,0.0479,0.0485,0.0479,0.0446,0.0445,0.0438,0.0394,0.039,0.0328,0.0311,0.0273,0.0228,0.0246,0.0187,0.0153,0.0149,0.0246,0.0252,0.0257,0.029,0.0214,0,0,0,0,0,0.0494,0.0505,0.0494,0.0502,0.05,0.048,0.0475,0.0466,0.0429,0.0411,0.0372,0.0312,0.0252,0.0232,0.0172,0.0148,0.0102,0.015,0.0156,0.0161,0.0174,0.0105,0.0107,0.0087,0.0087,0.0087,0,0,0.0503,0.0503,0.051,0.0507,0.0495,0.0497,0.0474,0.0478,0.0483,0.0405,0.0391,0.0332,0.0245,0.0207,0.0188,0.0179,0.0142,0.0158,0.0164,0.0174,0.0103,0.0106,0.0108,0.0085,0.0085,0.0086,0,0,0.0522,0.0522,0.0535,0.0534,0.0536,0.0524,0.0536,0.052,0.0512,0.0495,0.0427,0.0381,0.0314,0.0253,0.0211,0.0208,0.0167,0.0195,0.0263,0.0196,0.0199,0.02,0.0158,0.0155,0.0206,0.0206,0.0207,0,0.0532,0.0547,0.0538,0.0546,0.0552,0.0543,0.0556,0.0546,0.052,0.0513,0.0505,0.0393,0.0335,0.0269,0.027,0.0227,0.0188,0.0257,0.0208,0.0208,0.0208,0.0164,0.0159,0.0212,0.0211,0.0211,0.021,0,0.0557,0.0571,0.0577,0.0588,0.059,0.0603,0.0596,0.0601,0.0603,0.0591,0.0552,0.0469,0.04,0.0381,0.0332,0.0295,0.0269,0.0223,0.0208,0.0218,0.017,0.0163,0.022,0.0218,0.0216,0.0215,0,0,0.0567,0.0592,0.0595,0.061,0.0617,0.0621,0.0634,0.0635,0.064,0.0628,0.0619,0.0542,0.0513,0.0462,0.0395,0.0357,0.033,0.031,0.0304,0.0298,0.0204,0.0202,0.0193,0.0281,0.028,0.0279,0.0179,0,0.0589,0.0623,0.0627,0.0658,0.0672,0.067,0.068,0.0682,0.0675,0.0663,0.0609,0.0565,0.0537,0.0505,0.0466,0.0344,0.0313,0.0362,0.0169,0.0164,0.0184,0.0185,0.0276,0.0173,0.0172,0.017,0.0169,0,0.0607,0.063,0.0669,0.0698,0.0702,0.0724,0.0735,0.0743,0.0722,0.0714,0.0682,0.0627,0.0563,0.0536,0.0388,0.0423,0.0337,0.0261,0.0254,0.0207,0.0148,0.015,0.0155,0.0156,0.0157,0.0158,0.0159,0,0.0619,0.0656,0.0694,0.0704,0.0733,0.0755,0.0772,0.0767,0.0777,0.0744,0.0742,0.0655,0.0607,0.0494,0.0361,0.0367,0.02,0.0169,0.0091,0.009,0.0071,0.007,0.0076,0.0076,0.0076,0.0077,0.0077,0,0.0633,0.066,0.0711,0.0731,0.0777,0.0786,0.0828,0.0823,0.0825,0.083,0.0773,0.0741,0.0598,0.0488,0.0367,0.0213,0.0195,0.0111,0.0063,0.0124,0.013,0.0067,0.0067,0.0073,0.0074,0.0074,0.0075,0,0.0629,0.0664,0.0709,0.0762,0.0786,0.0819,0.0882,0.0903,0.0901,0.09,0.0893,0.0801,0.0657,0.0511,0.0305,0.0219,0.0062,0.001,0.0108,0.0064,0.0,0.0008,-0.0081,-0.0082,-0.0083,-0.0084,-0.0084,0,0.0627,0.0655,0.0734,0.0772,0.0805,0.0867,0.0911,0.094,0.0957,0.0927,0.0916,0.0802,0.0721,0.0441,0.0284,0.0056,0.0027,-0.0045,-0.0021,0.0022,-0.0017,-0.0008,-0.0,-0.0086,-0.0086,-0.0086,-0.0086,0,0.0619,0.0657,0.0695,0.0787,0.0851,0.0911,0.0972,0.099,0.1006,0.1009,0.0919,0.0788,0.0631,0.0429,0.0259,0.0093,0.0004,-0.0054,-0.0053,-0.0031,0.0015,-0.002,-0.0011,-0.0089,-0.0089,-0.0088,-0.0088,0,0.0613,0.064,0.0712,0.0785,0.0866,0.0926,0.0965,0.0981,0.1,0.0966,0.0928,0.077,0.068,0.0447,0.0279,0.0129,0.0095,0.0048,0.0043,0.0045,0.0115,0.0195,0.011,0,0,0,0,0,0.0598,0.0634,0.0706,0.0789,0.0872,0.0925,0.0986,0.1016,0.1035,0.0972,0.0953,0.0802,0.0565,0.0458,0.0305,0.0269,0.0073,0.0086,0.0018,-0.0104,-0.0101,-0.004,0,0,0,0,0,0,0.059,0.065,0.0695,0.0783,0.0841,0.0933,0.0975,0.0991,0.0952,0.0942,0.0811,0.0764,0.0528,0.0648,0.03,0.0257,0.0193,-0.0019,-0.0022,-0.0106,-0.0103,-0.0101,-0.0036,0,0,0,0,0]}]]